Greenwood, Nova Scotia

1:56 PM AST on February 21, 2017 (GMT -0400)
Greenwood

Weather History for CYZX - December, 2012

Change the Weather History Date:

Monday, December 3, 2012

  Actual Average Record
Temperature  
Mean Temperature 48 °F -  
Max Temperature 55 °F 34 °F 56 °F (2014)
Min Temperature 41 °F 18 °F 12 °F (2007)
Degree Days  
Heating Degree Days 17    
Moisture  
Dew Point 45 °F    
Average Humidity 89    
Maximum Humidity 100    
Minimum Humidity 77    
Precipitation  
Precipitation 0.16 in 0.15 in - ()
Sea Level Pressure  
Sea Level Pressure 30.03 in    
Wind  
Wind Speed 10 mph ()    
Max Wind Speed 18 mph    
Max Gust Speed 25 mph    
Visibility 8.1 miles    
Events Rain    
Averages and records for this station are not official NWS values.
T = Trace of Precipitation, MM = Missing Value Source: Averaged Metar Reports

Daily Weather History Graph

Daily Weather History Graph

Search for Another Location

Airport or City:

Trip Planner

Search our weather history database for the weather conditions in past years. The results will help you decide how hot, cold, wet, or windy it might be!

Date:

Astronomy

Dec. 03, 2012 Rise Set
Actual Time 7:40 AM AST 4:38 PM AST
Civil Twilight 7:07 AM AST 5:12 PM AST
Nautical Twilight 6:30 AM AST 5:48 PM AST
Astronomical Twilight 5:54 AM AST 6:24 PM AST
Moon 9:28 PM AST (12/3) 10:55 AM AST (12/3)
Length of Visible Light 10h 05m
Length of Day
8h 58m
Waning Gibbous, 78% of the Moon is Illuminated
Dec 3
Waning Gibbous
Dec 6
Last Quarter
Dec 13
New
Dec 20
First Quarter
Dec 28
Full

Hourly Weather History & Observations

Time (AST) Temp. Windchill Dew Point Humidity Pressure Visibility Wind Dir Wind Speed Gust Speed Precip Events Conditions
12:00 AM 48.2 °F - 46.4 °F 93% 30.08 in 8.0 mi South 17.3 mph 24.2 mph N/A Rain Light Rain Showers
12:42 AM - - - N/A% - 6.0 mi South 15.0 mph 21.9 mph N/A Rain Light Rain
1:00 AM 51.8 °F - 48.2 °F 88% 30.05 in 6.0 mi South 18.4 mph 25.3 mph N/A Rain Light Rain
2:00 AM 52 °F - 50 °F 89% 30.03 in 6 mi South 15.0 mph - - Rain Light Rain
2:00 AM 51.8 °F - 50.0 °F 94% 30.02 in 6.0 mi South 16.1 mph 21.9 mph N/A Rain Light Rain
2:45 AM - - - N/A% - 5.0 mi SSW 10.4 mph 19.6 mph N/A Rain Light Rain
3:00 AM 53.6 °F - 50.0 °F 88% 30.02 in 6.0 mi SW 9.2 mph - N/A Rain Light Rain
4:00 AM 53.6 °F - 48.2 °F 82% 29.98 in 12.0 mi SSW 12.7 mph 20.7 mph N/A Rain Light Rain
5:00 AM 51.8 °F - 50.0 °F 94% 29.97 in 8.0 mi SW 9.2 mph - N/A Rain Light Rain
6:00 AM 53.6 °F - 48.2 °F 82% 29.96 in 12.0 mi SSW 12.7 mph 19.6 mph N/A Rain Light Rain
6:27 AM - - - N/A% - 3.0 mi SW 11.5 mph - N/A Rain Light Rain
6:39 AM - - - N/A% - 5.0 mi SSW 9.2 mph - N/A Rain Light Rain
7:00 AM 50.0 °F - 50.0 °F 100% 29.96 in 5.0 mi SSW 9.2 mph - N/A Rain Light Rain
7:39 AM - - - N/A% - 4.0 mi SW 6.9 mph - N/A Rain Light Rain
8:00 AM 51 °F - 50 °F 95% 29.97 in 4 mi SW 5.8 mph - - Rain Light Rain
8:00 AM 50.0 °F - 50.0 °F 100% 29.97 in 4.0 mi SW 5.8 mph - N/A Rain Light Rain
8:11 AM - - - N/A% - 3.0 mi SW 4.6 mph - N/A Rain Light Rain
9:00 AM 50.0 °F - 50.0 °F 100% 29.96 in 3.0 mi SW 10.4 mph - N/A Rain Light Rain
9:29 AM - - - N/A% - 3.0 mi WSW 8.1 mph - N/A Rain Light Rain
10:00 AM 50.0 °F - 50.0 °F 100% 29.96 in 3.0 mi WSW 10.4 mph - N/A Rain Light Rain
10:28 AM - - - N/A% - 2.0 mi WSW 11.5 mph - N/A Rain Light Rain Showers
11:00 AM 50.0 °F - 48.2 °F 94% 29.96 in 2.0 mi WSW 6.9 mph - N/A Rain Light Rain Showers
11:46 AM - - - N/A% - 3.0 mi WSW 9.2 mph - N/A Rain Light Rain Showers
12:00 PM 50.0 °F - 48.2 °F 94% 29.95 in 3.0 mi WSW 8.1 mph - N/A Rain Light Rain Showers
12:32 PM - - - N/A% - 4.0 mi WSW 8.1 mph - N/A Rain Light Rain Showers
1:00 PM 50.0 °F - 48.2 °F 94% 29.96 in 5.0 mi WSW 9.2 mph - N/A Rain Light Rain Showers
2:00 PM 49 °F - 46 °F 87% 29.97 in 5 mi WSW 12.7 mph - - Rain Light Rain Showers
2:00 PM 48.2 °F - 46.4 °F 93% 29.96 in 5.0 mi WSW 9.2 mph - N/A Rain Light Rain Showers
2:36 PM - - - N/A% - 10.0 mi West 9.2 mph - N/A   Overcast
2:50 PM - - - N/A% - 12.0 mi WNW 12.7 mph - N/A Rain Light Rain Showers
3:00 PM 48.2 °F - 46.4 °F 93% 29.98 in 12.0 mi NW 9.2 mph - N/A Rain Light Rain Showers
3:47 PM - - - N/A% - 15.0 mi West 9.2 mph - N/A   Mostly Cloudy
4:00 PM 46.4 °F 42.4 °F 42.8 °F 87% 30.02 in 15.0 mi WNW 8.1 mph - N/A   Mostly Cloudy
5:00 PM 46.4 °F 41.5 °F 41.0 °F 81% 30.06 in 15.0 mi WNW 10.4 mph - N/A   Mostly Cloudy
6:00 PM 44.6 °F 37.4 °F 39.2 °F 81% 30.10 in 15.0 mi WNW 16.1 mph - N/A   Overcast
7:00 PM 42.8 °F 36.2 °F 37.4 °F 81% 30.14 in 15.0 mi NW 12.7 mph - N/A   Overcast
7:10 PM - - - N/A% - 15.0 mi WNW 11.5 mph 17.3 mph N/A   Overcast
8:00 PM 42 °F - 37 °F 77% 30.15 in 15 mi NW 10.4 mph - -   Partly Cloudy
8:00 PM 42.8 °F 38.0 °F 37.4 °F 81% 30.15 in 15.0 mi WNW 8.1 mph - N/A   Overcast
9:00 PM 41.0 °F 37.1 °F 37.4 °F 87% 30.18 in 15.0 mi NW 5.8 mph - N/A   Overcast
10:00 PM 42.8 °F 39.3 °F 37.4 °F 81% 30.21 in 15.0 mi NW 5.8 mph - N/A   Overcast
11:00 PM 42.8 °F 39.3 °F 37.4 °F 81% 30.21 in 15.0 mi North 5.8 mph - N/A   Overcast